Location: Unspecified
(52.1971°N, 0.0000°E)
Time: 14:25:33
(UTC+00:00)

YUBILEINY - Pass Details

Date: 22 December 2019
Orbit: 1478 x 1509 km, 82.5° (Epoch: 20 January)

Event Time Altitude Azimuth Distance (km) Brightness Sun altitude
Rises 18:34:44 0° 144° (SE) 4,603 ? -23.7°
Enters shadow 18:35:20 - 143° (SE) 4,421 ? -23.8°
Exits shadow 18:52:53 - 22° (NNE) 3,826 ? -26.5°
Sets 18:55:30 0° 14° (NNE) 4,612 ? -26.9°
